This is the latest recevied weather packets stored in our database for station/object KC2GYU. If no packets are shown the sender has not sent any weather packets the latest 10 day(s).
| Time | Temp. | Humidity | Pressure | Rain* | Wind** | Luminosity | Snow |
|---|---|---|---|---|---|---|---|
| 1778222121 | 9.44° C | 97% | 1010.8 hPa | 0 mm | - | 0 W/m² | - |
| 1778221819 | 9.44° C | 97% | 1010.9 hPa | 0 mm | - | 0 W/m² | - |
| 1778221516 | 9.44° C | 98% | 1010.8 hPa | 0 mm | - | 0 W/m² | - |
| 1778221213 | 9.44° C | 98% | 1011 hPa | 0 mm | - | 0 W/m² | - |
| 1778220911 | 9.44° C | 98% | 1011 hPa | 0 mm | - | 0 W/m² | - |
| 1778139327 | 13.33° C | 97% | 1009 hPa | 0 mm | - | 0 W/m² | - |
| 1778139024 | 13.89° C | 97% | 1008.7 hPa | 0 mm | - | 0 W/m² | - |
| 1778138721 | 15° C | 97% | 1008.9 hPa | 1.27 mm | - | 0 W/m² | - |
| 1778138418 | 15° C | 97% | 1009.4 hPa | 0 mm | - | 0 W/m² | - |
| 1778138116 | 15.56° C | 96% | 1009.2 hPa | 0 mm | - | 0 W/m² | - |
| 1778137812 | 16.11° C | 96% | 1009.2 hPa | 0 mm | - | 0 W/m² | - |
| 1778137509 | 16.67° C | 96% | 1008.9 hPa | 0 mm | - | 0 W/m² | - |
| 1778137206 | 16.67° C | 96% | 1008.8 hPa | 0 mm | - | 0 W/m² | - |
| 1778136902 | 16.67° C | 96% | 1008.5 hPa | 0 mm | - | 0 W/m² | - |
| 1778136600 | 17.22° C | 95% | 1009.3 hPa | 0 mm | - | 0 W/m² | - |
| 1778136298 | 17.22° C | 95% | 1009.2 hPa | 0 mm | - | 0 W/m² | - |
| 1778135995 | 17.78° C | 95% | 1008.7 hPa | 0 mm | - | 0 W/m² | - |
| 1778135692 | 17.78° C | 95% | 1008.8 hPa | 0 mm | - | 0 W/m² | - |
| 1778135389 | 17.78° C | 95% | 1008.7 hPa | 0 mm | - | 0 W/m² | - |
| 1778135086 | 17.78° C | 95% | 1008.6 hPa | 0 mm | - | 0 W/m² | - |
| 1778134784 | 17.78° C | 95% | 1008.6 hPa | 0 mm | - | 0 W/m² | - |
| 1778134482 | 17.78° C | 95% | 1008.5 hPa | 0 mm | - | 0 W/m² | - |
| 1778134180 | 17.78° C | 95% | 1008.4 hPa | 0 mm | - | 0 W/m² | - |
| 1778133876 | 17.78° C | 95% | 1008.5 hPa | 0 mm | - | 0 W/m² | - |
| 1778133573 | 17.78° C | 96% | 1008.8 hPa | 0 mm | - | 0 W/m² | - |
* Rain latest hour (hover to see other rain measurements)
** Current wind speed in m/s (hover to see current wind gust speed)